Dewpoint
47 48 47 46 45 45 45 45 45 45 45 45 44 44 43 43 42 41 41 39 40 41 42 43 44 44 44 44 44 44 44 43 43 42 41 41 39 36 34 32 31 31
47 47 46 46 45 45 44 44 44 44 44 44 45 44 44 42 41 41 41 39 40 41 42 43 44 43 43 43 43 43 43 43 42 41 41 41 41 40 38 36 34 32
46 46 46 45 45 45 44 44 43 43 43 43 42 43 42 41 40 40 41 40 40 41 42 43 43 43 43 43 43 43 42 42 41 41 41 41 41 40 39 38 38 34
45 46 46 45 45 45 44 43 43 43 43 42 42 41 41 40 40 40 40 39 40 40 41 42 42 42 42 42 42 42 42 41 41 40 40 40 40 39 38 38 37 37
44 45 46 45 45 44 43 43 42 42 42 42 41 41 40 40 40 39 39 39 40 40 40 41 41 41 41 41 41 41 41 40 39 39 39 38 38 38 37 37 35 32
44 44 45 45 44 44 43 43 42 42 42 41 41 40 40 39 39 39 39 39 39 39 39 40 40 40 41 40 40 40 40 39 38 38 37 36 36 36 34 34 32 26
43 44 45 44 44 43 43 42 42 41 41 41 40 39 39 39 39 38 38 39 38 39 39 39 39 39 40 40 39 39 38 38 37 36 35 35 34 33 32 30 27 23
42 43 44 44 44 43 42 42 42 41 41 40 39 39 39 38 38 38 39 38 38 38 38 38 38 38 38 39 38 37 36 36 35 35 33 31 30 28 27 27 24 23
42 43 43 43 43 43 42 42 41 41 41 40 39 39 39 38 38 38 38 38 38 38 38 37 38 37 38 38 37 36 35 34 34 34 32 30 28 26 25 24 22 21
41 42 43 43 43 42 42 41 41 40 40 40 39 39 38 38 38 38 38 37 37 37 37 36 36 36 36 36 36 35 34 33 33 33 32 32 30 28 27 24 21 19
40 41 42 42 42 42 41 40 40 40 39 39 38 37 37 37 37 37 37 37 36 36 36 36 35 35 35 35 35 35 34 33 33 32 32 31 31 30 30 28 27 22
39 39 40 41 41 41 41 40 39 39 39 38 38 37 37 37 37 37 37 36 36 36 35 35 35 35 35 34 34 33 34 33 33 32 31 30 30 29 27 23 21 18
38 38 39 40 41 41 40 40 39 39 38 38 38 37 37 36 36 36 36 36 35 35 34 34 34 34 34 33 33 33 33 32 32 31 30 30 29 28 26 20 18 18
37 37 38 39 40 40 39 39 38 38 37 37 36 37 36 36 36 36 36 35 35 34 34 34 34 33 33 33 33 33 33 32 31 30 30 29 27 23 20 19 18 17
35 36 38 39 39 38 38 37 37 37 36 36 36 36 36 36 35 35 35 34 34 34 33 34 33 32 32 32 32 32 33 32 30 30 26 23 20 19 18 18 16 16
36 36 37 38 38 38 37 37 36 36 36 35 35 35 35 35 35 34 34 34 33 33 33 32 32 31 31 32 32 30 30 29 30 30 24 20 18 17 16 16 15 16
36 36 37 37 37 37 36 36 36 35 35 34 34 34 34 34 34 33 33 33 33 32 31 31 31 31 32 33 32 31 29 28 25 22 20 18 17 16 15 14 14 14
36 36 37 37 36 36 36 36 35 34 34 34 33 33 33 33 33 33 33 32 31 31 31 30 30 31 33 33 32 31 30 29 28 21 19 17 16 15 14 13 12 13
35 36 36 36 35 35 35 35 34 34 33 33 33 33 33 32 32 32 32 31 30 30 30 30 29 31 33 33 32 32 30 28 24 20 18 16 14 13 13 11 11 12
34 35 35 35 34 34 34 34 33 33 33 33 32 32 32 31 32 32 31 30 30 29 29 29 29 31 33 33 32 32 31 28 21 19 17 15 13 12 11 10 10 11
34 34 34 34 34 33 33 33 32 32 32 32 32 31 31 31 31 31 30 29 30 30 30 30 28 31 32 32 32 32 30 27 18 17 14 13 12 11 11 9 8 10
33 34 33 33 33 33 32 32 32 31 31 31 31 31 31 31 31 31 30 29 30 30 30 29 29 31 32 33 32 31 30 21 16 14 12 11 10 10 9 8 7 8
33 33 32 32 32 32 31 31 31 31 31 31 30 30 30 31 30 31 31 30 29 29 29 29 30 31 32 32 32 31 28 19 16 14 11 10 10 9 9 8 7 7
32 32 31 31 31 31 31 30 30 30 30 30 30 30 29 29 30 31 31 30 29 28 28 28 28 30 32 32 32 31 26 19 14 12 11 10 9 9 8 8 9 19
32 31 31 30 30 30 30 30 30 30 30 30 30 30 29 30 30 30 29 29 28 28 28 28 28 30 32 32 31 30 25 16 14 12 11 10 9 9 8 8 9 18
31 31 31 30 30 30 30 30 30 30 30 29 29 30 29 30 29 29 29 29 28 27 27 27 28 30 32 32 31 30 26 20 17 13 13 10 9 9 9 8 8 11